Location: Kuppenheim
(48.8299°N, 8.2568°E)
Time: 10:15:13
(UTC+00:00)

Cosmos 1328 Rocket - Pass Details

Date: 20 June 2021
Orbit: 602 x 625 km, 82.5° (Epoch: 03 August)

Event Time Altitude Azimuth Distance (km) Brightness Sun altitude
Rises 02:24:04 0° 348° (NNW) 2,881 7.6 -7.8°
Reaches altitude 10° 02:26:18 10° 346° (NNW) 1,975 6.7 -7.6°
Maximum altitude 02:30:38 69° 264° (W) 660 3.6 -7.1°
Drops below altitude 10° 02:34:59 10° 181° (S) 1,973 5.7 -6.6°
Sets 02:37:12 0° 179° (S) 2,877 6.5 -6.4°
